STARLINK-35705 (67039 NORAD) Tracking and Keplerian Element Data

This shows tracking and keplerian element data for the satellite.

Feedback or suggestion? Click here.




ElementValue
Catalog67039
NameSTARLINK-35705
Epoch Orbit132
Epoch Day354.25003472
Epoch Year2025
RAAN136.2446
Inclination42.9999
Eccentricity0.0001722
Argument of Perigee262.8484
Mean Anonmoly342.7878
Mean Motion15.88897536
Decay Rate-0.0138087
L11 67039U 25294K 25354.25003472 -.01380870 00000+0 -53585-2 0 9995
L22 67039 42.9999 136.2446 0001722 262.8484 342.7878 15.88897536 1326



Live tracking and technical data element details for STARLINK-35705 (NORAD 67039). STARLINK-35705 can be tracked NOW for your location showing map with azimuth and elevation plus other details from your city location.







IsCatalogInMostPopularTable: catalog: 67039, numindb: 14
Update: records affected: 1



GetName: 67039 STARLINK-35705

Hit Count: updated at: Fri, 16 Jan 2026 09:20:30 GMT